Погода в Подгородней Покровке

Россия / Оренбургская область     51°49′55″N   54°58′34″E
В апреле 2022 года жителям России запретили посещать сайт meteo.paraplan.net по решению Генеральной прокуратуры. Аудитория сайта уменьшилась в 10 раз. Владельцы сайта не видят смысла в поддержке погодного сервера в таких условиях. Сайт будет закрыт в октябре.
темп.,
°C
ветер,
м/с
пор.,
м/с
влажн.,
%
обл.,
%
осадки,
мм/ч
давл.,
гПа
погр.,
м
4 октября, вт
вт423:00+10вюв411375 0.0 1027232
02:00+8юв410360 0.0 1029202
05:00+7вюв47356 0.0 1030134
08:00+6вюв493769 0.0 1030163
11:00+12юв692379 0.0 1031600
14:00+15ююв6719100 0.0 10321121
17:00+15юв581982 0.0 10311122
20:00+11вюв4927100 0.0 1031163
5 октября, ср
ср523:00+9вюв4113092 0.0 1031241
02:00+8юв493399 0.0 1032162
05:00+7юв51232100 0.0 1032233
08:00+8юв51230100 0.0 1032306
11:00+11ююв5925100 0.0 1031496
14:00+16ююв6817100 0.0 1030877
17:00+16ююв5919100 0.0 1028711
20:00+13юв4524100 0.0 102866
6 октября, чт
чт623:00+12ююв41024100 0.0 1026195
02:00+13ююв61422100 0.0 1024323
05:00+12ю61526100 0.0 1023365
08:00+12ю61430100 0.0 1022387
11:00+14ююз61230100 0.0 1021638
14:00+14юз4733100 0.0 1021873
17:00+10зюз4773100 0.2 1021305
20:00+9ююз3481100 0.0 102091
7 октября, пт
пт723:00+10ю357470 0.0 1019112
02:00+10ююз3676100 0.4 1018229
05:00+9з397696 0.4 1018422
08:00+8зсз7118190 0.1 1018649
11:00+10з566780 0.2 10191039
14:00+11зсз674996 0.3 10191692
17:00+11зсз575298 0.3 10191379
20:00+9зюз33585 0.0 101939
8 октября, сб
сб823:00+9юз3956100 0.0 1019327
02:00+10зюз51167100 0.1 1018538
05:00+10зюз5118391 0.1 1017454
08:00+10зсз61276100 0.3 1018740
11:00+12зсз8106125 0.4 10201225
14:00+13сз795893 0.1 10211565
17:00+13зсз785326 0.1 10231261
20:00+12сз59562 0.0 1025624